Kosmos-628

operational
NORAD ID: 7094 Int'l Des: 1974-001 Owner: VMF Country: SU
LEOCIRCULARPOLAR

关于 Kosmos-628

正在加载描述...

实时位置

正在加载3D地球...

即将过境

高度历史

Altitude vs Time

uPlot chart will show altitude changes over time

两行轨道根数

1 7094U 74001A 26061.10246576 .00000077 00000-0 62976-4 0 9996
2 7094 82.9517 260.9810 0037858 81.2802 39.8231 13.75959199615851
Epoch: Mar 2, 2026 • Age: 33 hours

当前状态

高度 963.3 km
速度 7.38 km/s
星下点 28.97°N, 38.68°W
类型 other

大型星座

Loading constellations...